Weather in Lypove

Ukraine / Poltava Region     49°28′55″N   32°43′39″E
В апреле 2022 года жителям России запретили посещать сайт meteo.paraplan.net по решению Генеральной прокуратуры. Аудитория сайта уменьшилась в 10 раз. Владельцы сайта не видят смысла в поддержке погодного сервера в таких условиях. Сайт будет закрыт в октябре.
temp.,
°C
wind,
m/s
gust,
m/s
humid.,
%
clouds,
%
prec.,
mm/h
press.,
hPa
HPBL,
m
30 september, fri
fri3000:00+16sse41077100 0.1 1011231
03:00+15se3691100 1.9 1011151
06:00+14se489199 0.8 1011154
09:00+17s5108934 3.1 1012470
12:00+21s467332 0.4 1013785
15:00+23sw3562100 2.6 1013532
18:00+21n0068100 0.4 101411
21:00+19wnw117544 0.4 101411
1 october, sat
sat100:00+17w228157 0.0 101511
03:00+16wsw33885 0.0 101644
06:00+15wsw33875 0.0 101647
09:00+18sw367381 0.0 1017231
12:00+22wsw6855100 0.0 1016717
15:00+22w5851100 0.0 10161110
18:00+20w2261100 0.0 101511
21:00+17ne337099 0.0 101430
2 october, sun
sun200:00+16ene3374100 0.0 101238
03:00+15ne2283100 0.6 101142
06:00+15ese348592 0.6 100888
09:00+17s51184100 0.9 1006474
12:00+18ssw6987100 0.7 1005608
15:00+16wnw5891100 1.9 1004468
18:00+16nw61085100 0.1 1003697
21:00+13wnw4892100 0.5 1004558
3 october, mon
mon300:00+11nw71290100 4.1 1004721
03:00+10wnw61284100 5.8 1005735
06:00+11wnw5987100 0.3 1005857
09:00+12wnw5982100 1.3 1006828
12:00+10nw4885100 1.0 1008604
15:00+13wnw5670100 1.4 1009882
18:00+11wnw378054 0.6 1011443
21:00+9w379099 0.8 1012174
4 october, tue
tue400:00+9w499085 0.5 1013284
03:00+9w389190 0.6 1014194
06:00+10wsw4887100 0.2 1014356
09:00+11sw5882100 0.2 1014495
12:00+12sw5878100 0.5 1015744
15:00+12sw697997 1.1 1015659
18:00+11sw5887100 1.9 1016465
21:00+11sw5985100 2.4 1016356